COSMOS 2251 DEB, 34685

Orbit data source: Space-Track

COSMOS 2251 DEB, 34685 is space debris in LEO originally from a launch on Wed, 16 Jun 1993 UTC launched from the Plesetsk Missile And Space Complex (PKMTR). The debris from Iridium 33, an American commercial communications satellite, has been tracked extensively since its accidental collision with the defunct Russian satellite Cosmos 2251 in 2009. This event, occurring at high speed in low Earth orbit (LEO), generated thousands of pieces of space debris, significantly increasing the risk of further collisions. The Iridium 33 debris cloud has impacted space traffic management and orbital debris mitigation strategies, making it a subject of ongoing study in space situational awareness.

Loading next visibility...
Identifier
34685, 1993-036YF
Orbit
LEO
Country
Flag of CISCIS
Related business
Manufacturer
Unknown
Mission
Spacecraft
Bus & Motor
Unknown
Mass
Unknown
Launch date (UTC)
1993-06-16 (33 years ago)
Launch vehicle
Unknown
Launch site
Plesetsk Missile And Space Complex (PKMTR)
Object type
Payload
Rocket body
Debris
Shape & HBR
Unknown shape, 0.1 m
Radar Cross Section
Small (<0.1 m²)

Expand to show TLE details & history
Last TLE update: 7 hours ago

TLE from 7 hours ago
0 COSMOS 2251 DEB
1 34685U 93036YF  26036.04066522  .00005463  00000-0  11906-2 0  9996
2 34685  74.0293  45.4889 0011617 144.9112 245.7059 14.58102060893233
Epoch: 2026-02-05T00:58Z
TLE epoch observation values (Epoch: 2026-02-05T00:58:33.475Z)
Latitude
29.25731°
Longitude
-95.17351°
Altitude
706.041 km
Speed
7.504 km/s
True Right ascension
03h 38m 39s
True Declination
29° 06' 35"
Sunlit
Object was in daylight at epoch
Visualization orbit readout
Latitude
Unknown
Longitude
Unknown
Altitude
Unknown
Speed
Unknown
Apparent Right ascension
Unknown
Apparent Declination
Unknown
Sunlit
N/A
Visualization observer readout
Local Sidereal Time
10:09:34
Azimuth
Unknown
Elevation
Unknown
Doppler factor
Unknown
Orbital elements
Apogee altitude
705.128 km
Perigee altitude
688.69 km
Semi-major axis
7,075.046 km
Eccentricity
0.00116
Inclination
74.0293°
RAAN
45.4889°
Arg. of periapsis
144.9112°
True anomaly
245.58464°
Mean anomaly
245.7059°
Eccentric anomaly
245.64526°
Mean motion
3.64711 °/min
Orbital period
98.71 mins
BSTAR
0.0011906

Documentation

Showing up to 5 results
|